• In Uzbekistan
  • List of Countries
  • For 7 days
  • Water Temperature
  • Weather Map
  • Weather Widgets
  • user-avatar
    Login

    Hourly Weather Boa Vista

    Today, 27 January, Monday

    Time Temperature Precipitation Wind Pressure Humidity
    00:00 +30°C° 0 mm 3 mps 752 mmHg 60%
    01:00 +30°C° 0 mm 5 mps 752 mmHg 64%
    02:00 +29°C° 0 mm 6 mps 752 mmHg 67%
    03:00 +29°C° 0 mm 6 mps 752 mmHg 69%
    04:00 +28°C° 0 mm 6 mps 752 mmHg 70%
    05:00 +28°C° 0 mm 6 mps 752 mmHg 72%
    06:00 +28°C° 0 mm 6 mps 753 mmHg 70%
    07:00 +29°C° 0 mm 6 mps 753 mmHg 68%
    08:00 +29°C° 0 mm 6 mps 754 mmHg 66%
    09:00 +32°C° 0 mm 6 mps 754 mmHg 59%
    10:00 +34°C° 0 mm 5 mps 754 mmHg 52%
    11:00 +36°C° 0 mm 5 mps 754 mmHg 46%
    12:00 +37°C° 0 mm 5 mps 753 mmHg 42%
    13:00 +38°C° 0 mm 4 mps 752 mmHg 39%
    14:00 +40°C° 0 mm 4 mps 751 mmHg 35%
    15:00 +39°C° 0 mm 3 mps 750 mmHg 36%
    16:00 +38°C° 0 mm 3 mps 750 mmHg 37%
    17:00 +38°C° 0 mm 3 mps 750 mmHg 38%
    18:00 +37°C° 0 mm 3 mps 750 mmHg 41%
    19:00 +35°C° 0 mm 3 mps 751 mmHg 45%
    20:00 +34°C° 0 mm 3 mps 751 mmHg 48%
    21:00 +33°C° 0 mm 4 mps 752 mmHg 51%
    22:00 +32°C° 0 mm 5 mps 752 mmHg 55%
    23:00 +32°C° 0 mm 5 mps 753 mmHg 58%

    Tomorrow, 28 January, Tuesday

    Time Temperature Precipitation Wind Pressure Humidity
    00:00 +30°C° 0 mm 5 mps 752 mmHg 61%
    01:00 +30°C° 0 mm 6 mps 752 mmHg 64%
    02:00 +29°C° 0 mm 6 mps 752 mmHg 67%
    03:00 +29°C° 0 mm 5 mps 752 mmHg 69%
    04:00 +28°C° 0 mm 5 mps 752 mmHg 71%
    05:00 +28°C° 0 mm 5 mps 752 mmHg 73%
    06:00 +28°C° 0 mm 5 mps 752 mmHg 71%
    07:00 +29°C° 0 mm 6 mps 753 mmHg 69%
    08:00 +29°C° 0 mm 6 mps 754 mmHg 67%
    09:00 +32°C° 0 mm 6 mps 754 mmHg 60%
    10:00 +34°C° 0 mm 6 mps 754 mmHg 54%
    11:00 +35°C° 0 mm 6 mps 754 mmHg 47%
    12:00 +37°C° 0 mm 5 mps 753 mmHg 43%
    13:00 +39°C° 0 mm 5 mps 752 mmHg 39%
    14:00 +40°C° 0 mm 4 mps 750 mmHg 35%
    15:00 +38°C° 0 mm 4 mps 750 mmHg 35%
    16:00 +38°C° 0 mm 4 mps 749 mmHg 36%
    17:00 +38°C° 0 mm 3 mps 749 mmHg 36%
    18:00 +37°C° 0 mm 3 mps 749 mmHg 39%
    19:00 +35°C° 0 mm 3 mps 750 mmHg 42%
    20:00 +34°C° 0 mm 3 mps 750 mmHg 46%
    21:00 +33°C° 0 mm 3 mps 751 mmHg 48%
    22:00 +31°C° 0 mm 3 mps 751 mmHg 51%
    23:00 +31°C° 0 mm 3 mps 752 mmHg 54%

    Day after tomorrow, 29 January, Wednesday

    Time Temperature Precipitation Wind Pressure Humidity
    00:00 +30°C° 0 mm 4 mps 751 mmHg 57%
    01:00 +30°C° 0 mm 4 mps 751 mmHg 60%
    02:00 +29°C° 0 mm 4 mps 750 mmHg 63%
    03:00 +29°C° 0 mm 4 mps 751 mmHg 65%
    04:00 +28°C° 0 mm 4 mps 751 mmHg 67%
    05:00 +28°C° 0 mm 4 mps 751 mmHg 70%
    06:00 +29°C° 0 mm 5 mps 752 mmHg 68%
    07:00 +29°C° 0 mm 5 mps 752 mmHg 66%
    08:00 +30°C° 0 mm 6 mps 753 mmHg 64%
    09:00 +32°C° 0 mm 6 mps 753 mmHg 59%
    10:00 +34°C° 0 mm 6 mps 753 mmHg 54%
    11:00 +35°C° 0 mm 6 mps 753 mmHg 49%
    12:00 +36°C° 0 mm 5 mps 752 mmHg 47%
    13:00 +36°C° 0 mm 5 mps 752 mmHg 45%
    14:00 +36°C° 0 mm 4 mps 751 mmHg 43%
    15:00 +37°C° 0 mm 4 mps 750 mmHg 41%
    16:00 +37°C° 0 mm 4 mps 750 mmHg 40%
    17:00 +37°C° 0 mm 4 mps 749 mmHg 38%
    18:00 +36°C° 0 mm 4 mps 750 mmHg 42%
    19:00 +35°C° 0 mm 3 mps 750 mmHg 45%
    20:00 +33°C° 0 mm 3 mps 751 mmHg 48%
    21:00 +33°C° 0 mm 3 mps 751 mmHg 50%
    22:00 +32°C° 0 mm 4 mps 751 mmHg 53%
    23:00 +30°C° 0 mm 4 mps 752 mmHg 55%

    30 January, Thursday

    Time Temperature Precipitation Wind Pressure Humidity
    00:00 +30°C° 0 mm 4 mps 751 mmHg 58%
    01:00 +29°C° 0 mm 4 mps 751 mmHg 61%
    02:00 +29°C° 0 mm 4 mps 751 mmHg 64%
    03:00 +28°C° 0 mm 5 mps 751 mmHg 66%
    04:00 +28°C° 0 mm 5 mps 751 mmHg 67%
    05:00 +28°C° 0 mm 5 mps 752 mmHg 69%
    06:00 +28°C° 0 mm 6 mps 752 mmHg 68%
    07:00 +28°C° 0 mm 6 mps 753 mmHg 66%
    08:00 +29°C° 0 mm 7 mps 754 mmHg 65%
    09:00 +32°C° 0 mm 6 mps 754 mmHg 59%
    10:00 +33°C° 0 mm 6 mps 754 mmHg 53%
    11:00 +35°C° 0 mm 6 mps 754 mmHg 48%
    12:00 +35°C° 0 mm 5 mps 753 mmHg 46%
    13:00 +36°C° 0 mm 5 mps 752 mmHg 45%
    14:00 +36°C° 0 mm 4 mps 751 mmHg 43%
    15:00 +36°C° 0 mm 4 mps 750 mmHg 43%
    16:00 +36°C° 0 mm 4 mps 750 mmHg 43%
    17:00 +36°C° 0 mm 4 mps 749 mmHg 43%
    18:00 +34°C° 0 mm 4 mps 750 mmHg 47%
    19:00 +33°C° 0 mm 4 mps 751 mmHg 50%
    20:00 +32°C° 0 mm 4 mps 752 mmHg 54%
    21:00 +30°C° 0 mm 4 mps 752 mmHg 56%
    22:00 +30°C° 0 mm 4 mps 752 mmHg 58%
    23:00 +29°C° 0 mm 3 mps 753 mmHg 61%

    31 January, Friday

    Time Temperature Precipitation Wind Pressure Humidity
    00:00 +29°C° 0 mm 4 mps 752 mmHg 63%
    01:00 +28°C° 0 mm 4 mps 752 mmHg 65%
    02:00 +28°C° 0 mm 4 mps 751 mmHg 68%
    03:00 +27°C° 0 mm 4 mps 752 mmHg 69%
    04:00 +27°C° 0 mm 5 mps 752 mmHg 70%
    05:00 +27°C° 0 mm 5 mps 752 mmHg 71%
    06:00 +27°C° 0 mm 5 mps 753 mmHg 69%
    07:00 +28°C° 0 mm 6 mps 753 mmHg 68%
    08:00 +28°C° 0 mm 6 mps 754 mmHg 67%
    09:00 +30°C° 0 mm 6 mps 754 mmHg 60%
    10:00 +33°C° 0 mm 5 mps 754 mmHg 53%
    11:00 +35°C° 0 mm 5 mps 754 mmHg 46%
    12:00 +35°C° 0 mm 4 mps 753 mmHg 45%
    13:00 +36°C° 0 mm 4 mps 752 mmHg 45%
    14:00 +36°C° 0 mm 4 mps 751 mmHg 44%
    15:00 +36°C° 0 mm 3 mps 751 mmHg 43%
    16:00 +36°C° 0 mm 3 mps 751 mmHg 42%
    17:00 +36°C° 0 mm 3 mps 750 mmHg 41%
    18:00 +35°C° 0 mm 3 mps 751 mmHg 45%
    19:00 +32°C° 0 mm 2 mps 751 mmHg 49%
    20:00 +31°C° 0 mm 2 mps 752 mmHg 53%
    21:00 +31°C° 0 mm 2 mps 752 mmHg 54%
    22:00 +30°C° 0 mm 2 mps 753 mmHg 55%
    23:00 +30°C° 0 mm 2 mps 753 mmHg 56%

    1 February, Saturday

    Time Temperature Precipitation Wind Pressure Humidity
    00:00 +30°C° 0 mm 3 mps 752 mmHg 60%
    01:00 +29°C° 0 mm 4 mps 752 mmHg 64%
    02:00 +29°C° 0 mm 5 mps 752 mmHg 68%
    03:00 +28°C° 0 mm 5 mps 752 mmHg 70%
    04:00 +28°C° 0 mm 5 mps 752 mmHg 72%
    05:00 +27°C° 0 mm 5 mps 752 mmHg 74%
    06:00 +28°C° 0 mm 5 mps 753 mmHg 71%
    07:00 +29°C° 0 mm 6 mps 753 mmHg 68%
    08:00 +29°C° 0 mm 6 mps 754 mmHg 66%
    09:00 +32°C° 0 mm 6 mps 754 mmHg 59%
    10:00 +34°C° 0 mm 6 mps 754 mmHg 52%
    11:00 +36°C° 0 mm 6 mps 754 mmHg 45%
    12:00 +37°C° 0 mm 5 mps 753 mmHg 43%
    13:00 +37°C° 0 mm 5 mps 752 mmHg 41%
    14:00 +38°C° 0 mm 4 mps 751 mmHg 39%
    15:00 +38°C° 0 mm 4 mps 750 mmHg 38%
    16:00 +38°C° 0 mm 4 mps 749 mmHg 38%
    17:00 +38°C° 0 mm 4 mps 749 mmHg 37%
    18:00 +36°C° 0 mm 3 mps 749 mmHg 41%
    19:00 +35°C° 0 mm 3 mps 750 mmHg 44%
    20:00 +34°C° 0 mm 3 mps 750 mmHg 47%
    21:00 +33°C° 0 mm 4 mps 751 mmHg 51%
    22:00 +32°C° 0 mm 5 mps 751 mmHg 54%
    23:00 +30°C° 0 mm 6 mps 752 mmHg 58%
    Show more